Weather in Kulsary

Kazakhstan     46˚57′39″N   54˚00′21″E
temp.,
°C
wind,
m/s
gust,
m/s
humid.,
%
clouds,
%
prec.,
mm/h
press.,
hPa
HPBL,
m
2 december, wed
wed223:00−8˚e611730 0.0 1038347
02:00−9˚e69740 0.0 1038318
05:00−10˚e58760 0.0 1038264
08:00−10˚e57780 0.0 1038244
11:00−9˚e57720 0.0 1038262
14:00−7˚e56610 0.0 1037336
17:00−7˚ene45660 0.0 1036319
20:00−9˚ene46720 0.0 1037254
3 december, thu
thu323:00−9˚ene46720 0.0 1037249
02:00−10˚ene35730 0.0 1037214
05:00−10˚ne45750 0.0 1038190
08:00−10˚ne35740 0.0 1037209
11:00−9˚ne45620 0.0 1039268
14:00−6˚ne34510 0.0 1038393
17:00−6˚ne46530 0.0 1038352
20:00−8˚ne46650 0.0 1038269
4 december, fri
fri423:00−9˚ne46690 0.0 1038238
02:00−9˚ne35680 0.0 1038197
05:00−9˚ne34690 0.0 1038150
08:00−10˚ne35680 0.0 1038148
11:00−8˚ene34600 0.0 1039251
14:00−5˚ene34500 0.0 1039350
17:00−5˚ne34530 0.0 1038254
20:00−7˚ene46660 0.0 1038214
5 december, sat
sat523:00−8˚ene36690 0.0 1039214
02:00−9˚ene46720 0.0 1039217
05:00−9˚e46730 0.0 1038206
08:00−10˚e46730 0.0 1038201
11:00−9˚e46640 0.0 1039263
14:00−6˚e45530 0.0 1038351
17:00−6˚e46611 0.0 1037329
20:00−8˚e587164 0.0 1037287
6 december, sun
sun623:00−9˚e587263 0.0 1037309
02:00−9˚ese597390 0.0 1038326
05:00−10˚ese697191 0.0 1038314
08:00−10˚e6107461 0.0 1038283
11:00−9˚e696831 0.0 1040316
14:00−7˚e68620 0.0 1039365
17:00−8˚e69680 0.0 1038356
20:00−9˚e69730 0.0 1039336